Simultaneous Nadir Overpasses (SNOs) Predictions

Prediction of SNOs between GOES-17 and NPP Satellite Orbit:

Table of predicted SNOs for the next 14.0 days since TLE Epoch: 5/22/2021
Index Date Time (GOES-17) GOES-17 Lat,Lon NPP Lat,Lon Distance(km) Time Diff (sec)
1 05/23/2021 10:39:18 -0.00,-137.19 0.21,-138.28 123.19 80
2 05/24/2021 10:17:54 -0.01,-137.19 -0.77,-133.74 392.16 80
3 05/25/2021 22:42:31 0.01,-137.17 -0.43,-139.05 214.40 80
4 05/26/2021 22:21:07 0.01,-137.16 0.61,-134.52 300.44 80
5 05/28/2021 10:45:36 -0.01,-137.14 0.60,-139.79 302.32 80
6 05/29/2021 10:24:12 -0.01,-137.12 -0.44,-135.27 212.06 80
7 05/30/2021 22:46:10 0.01,-137.10 -0.76,-140.57 395.78 80
8 05/31/2021 22:30:05 0.01,-137.08 0.23,-136.04 118.61 80
9 06/02/2021 10:51:54 -0.00,-137.06 0.93,-141.31 484.53 80
10 06/03/2021 10:30:30 -0.01,-137.04 -0.06,-136.78 29.71 80
